Weather in Verkhnyaya Khila

Russia / Zabaykalsky Krai     52°05′15″N   115°53′13″E
В апреле 2022 года жителям России запретили посещать сайт meteo.paraplan.net по решению Генеральной прокуратуры. Аудитория сайта уменьшилась в 10 раз. Владельцы сайта не видят смысла в поддержке погодного сервера в таких условиях. Сайт будет закрыт в октябре.
temp.,
°C
wind,
m/s
gust,
m/s
humid.,
%
clouds,
%
prec.,
mm/h
press.,
hPa
HPBL,
m
25 september, sun
sun2500:00+5wnw334744 0.0 100636
03:00+5wnw224693 0.0 100723
06:00+4w496588 0.1 1009318
09:00+5w7116785 0.1 10101095
12:00+8w8103997 0.0 10092260
15:00+8wnw101239100 0.1 10082173
18:00+7nw6105279 0.3 10091512
21:00+3w22685 0.3 101315
26 september, mon
mon2600:00+2sw1168100 0.0 101310
03:00+1ssw2273100 0.0 101310
06:00+1ssw1172100 0.0 101412
09:00+3wsw236890 0.4 1015180
12:00+6ssw33579 0.0 1015992
15:00+8ssw33479 0.0 10131397
18:00+6ssw5662100 0.0 1013705
21:00+4sse2477100 0.0 1013194
27 september, tue
tue2700:00+3ese117999 0.0 101015
03:00+2se1185100 0.0 100714
06:00+2ssw2578100 0.0 1002142
09:00+6ssw61452100 0.0 1000455
12:00+12w81246100 0.0 1000907
15:00+12wnw11133768 0.0 10031630
18:00+10w6103633 0.0 1005554
21:00+4nw2451100 0.0 101075
28 september, wed
wed2800:00+2wnw22565 0.0 101218
03:000wnw22615 0.0 101314
06:00−1w11675 0.0 101510
09:00+2nnw115110 0.0 1015154
12:00+7ene3334100 0.0 1014885
15:00+9e3330100 0.0 10121041
18:00+7ene3538100 0.0 1011156
21:00+4n2367100 0.7 101362
29 september, thu
thu2900:00+3nne3576100 0.1 1013142
03:00+3nne3578100 0.2 1012155
06:00+2n3590100 0.1 1013332
09:00+2nnw2396100 0.3 1014189
12:00+5nne3365100 0.0 1013966
15:00+7n2357100 0.0 10131285
18:00+7n2356100 0.0 1013268
21:00+5nne116375 0.0 101511